Litchfield, MN

7:34 AM CST on November 19, 2017 (GMT -0600)
Litchfield Municipal

Weather History for KLJF - October, 2012

Change the Weather History Date:

Sunday, October 21, 2012

  Actual Average Record
Temperature  
Mean Temperature 52 °F -  
Max Temperature 64 °F 57 °F 79 °F (1953)
Min Temperature 41 °F 36 °F 21 °F (1982)
Degree Days  
Heating Degree Days 12    
Growing Degree Days 2 (Base 50)    
Moisture  
Dew Point 46 °F    
Average Humidity 86    
Maximum Humidity 100    
Minimum Humidity 52    
Precipitation  
Precipitation 0.00 in - - ()
Sea Level Pressure  
Sea Level Pressure 29.81 in    
Wind  
Wind Speed 7 mph (SE)    
Max Wind Speed 15 mph    
Max Gust Speed 16 mph    
Visibility 9 miles    
Events      
Averages and records for this station are not official NWS values.
T = Trace of Precipitation, MM = Missing Value Source: NWS Daily Summary

Daily Weather History Graph

Daily Weather History Graph

Search for Another Location

Airport or City:

Trip Planner

Search our weather history database for the weather conditions in past years. The results will help you decide how hot, cold, wet, or windy it might be!

Date:

Astronomy

Oct. 21, 2012 Rise Set
Actual Time 7:42 AM CDT 6:21 PM CDT
Civil Twilight 7:12 AM CDT 6:51 PM CDT
Nautical Twilight 6:38 AM CDT 7:26 PM CDT
Astronomical Twilight 6:04 AM CDT 8:00 PM CDT
Moon 2:09 PM CDT (10/21) No Moon Set
Length of Visible Light 11h 39m
Length of Day
10h 39m
Waxing Crescent, 45% of the Moon is Illuminated
Oct 21
Waxing Crescent
Oct 21
First Quarter
Oct 29
Full
Nov 6
Last Quarter
Nov 13
New

Hourly Weather History & Observations

Time (CDT) Temp. Windchill Dew Point Humidity Pressure Visibility Wind Dir Wind Speed Gust Speed Precip Events Conditions
12:13 AM 44.6 °F 40.7 °F 44.6 °F 100% 29.78 in 10.0 mi SSE 6.9 mph - N/A   Clear
12:33 AM 44.6 °F 40.7 °F 44.6 °F 100% 29.77 in 10.0 mi SSE 6.9 mph - N/A   Clear
12:53 AM 44.6 °F 40.2 °F 44.6 °F 100% 29.78 in 10.0 mi SSE 8.1 mph - N/A   Clear
1:13 AM 44.6 °F 41.4 °F 44.6 °F 100% 29.78 in 10.0 mi SSE 5.8 mph - N/A   Clear
1:33 AM 46.4 °F 43.5 °F 46.4 °F 100% 29.79 in 10.0 mi SE 5.8 mph - N/A   Clear
1:53 AM 46.4 °F 42.9 °F 46.4 °F 100% 29.79 in 10.0 mi SE 6.9 mph - N/A   Clear
2:13 AM 44.6 °F 40.7 °F 44.6 °F 100% 29.79 in 10.0 mi SE 6.9 mph - N/A   Unknown
2:33 AM 44.6 °F 41.4 °F 44.6 °F 100% 29.80 in 7.0 mi SE 5.8 mph - N/A   Unknown
2:53 AM 44.6 °F 41.4 °F 44.6 °F 100% 29.80 in 10.0 mi SE 5.8 mph - N/A   Unknown
3:13 AM 42.8 °F 38.6 °F 42.8 °F 100% 29.79 in 7.0 mi SE 6.9 mph - N/A   Clear
3:33 AM 42.8 °F 38.0 °F 42.8 °F 100% 29.79 in 7.0 mi SE 8.1 mph - N/A   Clear
3:53 AM 42.8 °F 38.6 °F 42.8 °F 100% 29.79 in 7.0 mi SE 6.9 mph - N/A   Clear
4:13 AM 41.0 °F 35.8 °F 41.0 °F 100% 29.78 in 7.0 mi ESE 8.1 mph - N/A   Clear
4:33 AM 42.8 °F 38.0 °F 42.8 °F 100% 29.78 in 7.0 mi ESE 8.1 mph - N/A   Clear
4:53 AM 42.8 °F 38.6 °F 42.8 °F 100% 29.78 in 7.0 mi SE 6.9 mph - N/A   Clear
5:13 AM 42.8 °F 37.5 °F 42.8 °F 100% 29.78 in 7.0 mi ESE 9.2 mph - N/A   Clear
5:33 AM 41.0 °F 36.4 °F 41.0 °F 100% 29.78 in 7.0 mi ESE 6.9 mph - N/A   Clear
5:54 AM 41.0 °F 35.2 °F 41.0 °F 100% 29.77 in 7.0 mi ESE 9.2 mph - N/A   Clear
6:13 AM 41.0 °F 35.8 °F 41.0 °F 100% 29.78 in 7.0 mi ESE 8.1 mph - N/A   Clear
6:33 AM 42.8 °F 37.0 °F 42.8 °F 100% 29.78 in 7.0 mi ESE 10.4 mph - N/A   Clear
6:54 AM 42.8 °F 38.0 °F 42.8 °F 100% 29.77 in 7.0 mi ESE 8.1 mph - N/A   Clear
7:13 AM 42.8 °F 38.0 °F 42.8 °F 100% 29.78 in 7.0 mi ESE 8.1 mph - N/A   Clear
7:33 AM 42.8 °F 35.8 °F 42.8 °F 100% 29.76 in 7.0 mi ESE 13.8 mph - N/A   Clear
7:54 AM 42.8 °F 37.0 °F 42.8 °F 100% 29.76 in 7.0 mi ESE 10.4 mph - N/A   Clear
8:13 AM 42.8 °F 37.0 °F 42.8 °F 100% 29.77 in 7.0 mi SE 10.4 mph - N/A   Clear
8:33 AM 44.6 °F 38.8 °F 44.6 °F 100% 29.76 in 7.0 mi ESE 11.5 mph - N/A   Clear
8:53 AM 44.6 °F 39.2 °F 44.6 °F 100% 29.77 in 10.0 mi ESE 10.4 mph - N/A   Clear
9:13 AM 46.4 °F 40.1 °F 46.4 °F 100% 29.76 in 10.0 mi ESE 15.0 mph - N/A   Clear
9:33 AM 48.2 °F - 48.2 °F 100% 29.75 in 10.0 mi ESE 15.0 mph - N/A   Clear
9:53 AM 51.8 °F - 50.0 °F 94% 29.76 in 10.0 mi SE 12.7 mph - N/A   Clear
10:13 AM 51.8 °F - 51.8 °F 100% 29.77 in 10.0 mi SE 9.2 mph - N/A   Clear
10:33 AM 55.4 °F - 53.6 °F 94% 29.78 in 10.0 mi SE 9.2 mph - N/A   Clear
10:53 AM 55.4 °F - 51.8 °F 88% 29.77 in 10.0 mi SE 9.2 mph - N/A   Clear
11:14 AM 57.2 °F - 51.8 °F 82% 29.77 in 10.0 mi SE 9.2 mph - N/A   Clear
11:33 AM 57.2 °F - 51.8 °F 82% 29.77 in 10.0 mi SE 11.5 mph - N/A   Clear
11:53 AM 59.0 °F - 50.0 °F 72% 29.77 in 10.0 mi SSE 8.1 mph - N/A   Clear
12:14 PM 59.0 °F - 48.2 °F 67% 29.75 in 10.0 mi SSE 9.2 mph 16.1 mph N/A   Clear
12:33 PM 59.0 °F - 50.0 °F 72% 29.77 in 10.0 mi SSE 6.9 mph - N/A   Clear
12:53 PM 60.8 °F - 51.8 °F 72% 29.77 in 10.0 mi SSE 5.8 mph - N/A   Clear
1:14 PM 60.8 °F - 51.8 °F 72% 29.76 in 10.0 mi SSE 6.9 mph - N/A   Clear
1:33 PM 62.6 °F - 51.8 °F 68% 29.77 in 10.0 mi South 3.5 mph - N/A   Clear
1:53 PM 64.4 °F - 48.2 °F 56% 29.77 in 10.0 mi SW 3.5 mph - N/A   Clear
2:14 PM 64.4 °F - 50.0 °F 59% 29.77 in 10.0 mi SSW 4.6 mph - N/A   Mostly Cloudy
2:33 PM 62.6 °F - 48.2 °F 59% 29.78 in 10.0 mi Calm Calm - N/A   Mostly Cloudy
2:53 PM 64.4 °F - 46.4 °F 52% 29.78 in 10.0 mi SW 3.5 mph - N/A   Mostly Cloudy
3:14 PM 62.6 °F - 46.4 °F 55% 29.78 in 10.0 mi West 4.6 mph - N/A   Scattered Clouds
3:33 PM 60.8 °F - 46.4 °F 59% 29.79 in 10.0 mi WNW 3.5 mph - N/A   Scattered Clouds
3:52 PM 62.6 °F - 48.2 °F 59% 29.80 in 10.0 mi WNW 4.6 mph - N/A   Unknown
4:13 PM 62.6 °F - 46.4 °F 55% 29.80 in 10.0 mi WNW 8.1 mph - N/A   Scattered Clouds
4:33 PM 60.8 °F - 46.4 °F 59% 29.81 in 10.0 mi WNW 6.9 mph - N/A   Scattered Clouds
4:53 PM 60.8 °F - 46.4 °F 59% 29.81 in 10.0 mi WNW 5.8 mph - N/A   Scattered Clouds
5:13 PM 60.8 °F - 46.4 °F 59% 29.82 in 10.0 mi WNW 5.8 mph - N/A   Clear
5:33 PM 59.0 °F - 46.4 °F 63% 29.82 in 10.0 mi NW 5.8 mph - N/A   Clear
5:53 PM 57.2 °F - 46.4 °F 67% 29.83 in 10.0 mi NW 6.9 mph - N/A   Clear
6:13 PM 55.4 °F - 46.4 °F 72% 29.84 in 10.0 mi Calm Calm - N/A   Clear
6:34 PM 53.6 °F - 44.6 °F 72% 29.85 in 10.0 mi WNW 3.5 mph - N/A   Clear
6:53 PM 53.6 °F - 46.4 °F 77% 29.86 in 10.0 mi NW 4.6 mph - N/A   Clear
7:13 PM 51.8 °F - 48.2 °F 88% 29.86 in 10.0 mi NNW 6.9 mph - N/A   Clear
7:33 PM 51.8 °F - 46.4 °F 82% 29.87 in 10.0 mi NNW 6.9 mph - N/A   Clear
7:53 PM 50.0 °F - 46.4 °F 87% 29.88 in 10.0 mi NNW 6.9 mph - N/A   Clear
8:13 PM 50.0 °F - 46.4 °F 87% 29.89 in 10.0 mi NNW 6.9 mph - N/A   Clear
8:33 PM 48.2 °F - 46.4 °F 93% 29.89 in 10.0 mi NNW 6.9 mph - N/A   Clear
8:53 PM 48.2 °F - 46.4 °F 93% 29.90 in 10.0 mi NNW 5.8 mph - N/A   Clear
9:13 PM 48.2 °F - 44.6 °F 87% 29.90 in 10.0 mi NNW 5.8 mph - N/A   Clear
9:33 PM 46.4 °F 43.5 °F 44.6 °F 93% 29.91 in 10.0 mi NNW 5.8 mph - N/A   Clear
9:53 PM 46.4 °F 43.5 °F 44.6 °F 93% 29.91 in 10.0 mi NNW 5.8 mph - N/A   Clear
10:13 PM 48.2 °F - 46.4 °F 93% 29.91 in 10.0 mi NNW 5.8 mph - N/A   Clear
10:33 PM 46.4 °F 44.3 °F 44.6 °F 93% 29.92 in - NNW 4.6 mph - N/A   Clear
10:53 PM 46.4 °F 45.2 °F 44.6 °F 93% 29.91 in 10.0 mi NNW 3.5 mph - N/A   Clear
11:33 PM 44.6 °F - 44.6 °F 100% 29.91 in 10.0 mi Calm Calm - N/A   Clear
11:53 PM 46.4 °F 45.2 °F 44.6 °F 93% 29.91 in 10.0 mi NW 3.5 mph - N/A   Clear